SCP
0 0 0 0 0 0 0 0 0 0 0 0 0 0 0 0 0 0 0 0 0 0 0 0 0 0 0 0 0 0 0 0 0 0 0 0 0 0 0 0 0 0 0 0
0 0 0 0 0 0 0 0 0 0 0 0 0 0 0 0 0 0 0 0 0 0 0 0 0 0 0 0 0 0 0 0 0 0 0 0 0 0 0 0 0 0 0 0
0 0 0 0 0 0 0 0 0 0 0 0 0 0 0 0 0 0 0 0 0 0 0 0 0 0 0 0 0 0 0 0 0 0 0 0 0 0 0 0 0 0 0 0
0 0 0 0 0 0 0 0 0 0 0 0 0 0 0 0 0 0 0 0 0 0 0 0 0 0 0 0 0 0 0 0 0 0 0 0 0 0 0 0 0 0 0 0
0 0 0 0 0 0 0 0 0 0 0 0 0 0 0 0 0 0 0 0 0 0 0 0 0 0 0 0 0 0 0 0 0 0 0 0 0 0 0 0 0 0 0 0
0 0 0 0 0 0 0 0 0 0 0 0 0 0 -0 0 0 0 0 0 0 0 0 0 0 0 0 0 0 0 0 0 0 0 0 0 0 0 0 0 0 0 0 0
0 0 0 0 0 0 0 0 0 0 0 0 0 0 0 0 0 0 0 0 0 0 0 0 0 0 0 0 0 0 0 0 0 0 0 0 0 0 0 0 0 0 0 0
0 0 0 0 0 0 0 0 0 0 0 0 0 0 0 0 0 0 0 0 0 0 0 0 0 0 0 0 0 0 0 0 0 0 0 0 0 0 0 0 0 0 0 0
0 0 0 0 0 0 0 0 0 0 0 0 0 0 0 0 0 0 0 0 0 0 0 0 0 0 0 0 0 0 0 0 0 0 0 0 0 0 0 0 0 0 0 0
0 0 0 0 0 0 0 0 0 0 0 0 0 0 0 0 0 0 0 0 0 0 0 0 0 0 0 0 0 0 0 0 0 0 0 0 0 0 0 0 0 0 0 0
0 0 0 0 0 0 0 0 0 0 0 0 0 0 0 0 0 0 0 0 0 0 0 0 0 0 0 0 0 0 0 0 0 0 0 0 0 0 0 0 0 0 0 0
0 0 0 0 0 0 0 0 0 0 0 0 0 0 0 0 0 0 0 0 0 0 0 0 0 0 0 0 0 0 0 0 0 0 0 0 0 0 0 0 0 0 0 0
0 0 0 0 0 0 0 0 0 0 0 0 0 0 0 0 0 0 0 0 0 0 0 0 0 0 0 0 0 0 0 0 0 0 0 0 0 0 0 0 0 0 0 0
0 0 0 0 0 0 0 0 0 0 0 0 0 0 0 0 0 0 0 0 0 0 0 0 0 0 0 0 0 0 0 0 0 0 0 0 0 0 0 0 0 0 0 0
0 0 0 0 0 0 0 0 0 0 0 0 0 0 0 0 0 0 0 0 0 0 0 0 0 0 0 0 0 0 0 0 0 0 0 0 0 0 0 0 0 0 0 0
0 0 0 0 0 0 0 0 0 0 0 0 0 0 0 0 0 0 0 0 0 0 0 0 0 0 0 0 0 0 0 0 0 0 0 0 0 0 0 0 0 0 0 0
0 -0 0 0 0 0 0 0 0 0 0 0 0 0 0 -0 -0 0 0 0 0 0 0 0 0 0 0 0 0 0 0 0 0 0 0 0 0 0 0 0 0 0 0 0
0 0 0 0 0 0 0 0 0 0 0 0 0 0 0 0 0 0 0 0 0 0 0 0 0 0 0 0 0 0 0 0 0 0 0 0 0 0 0 0 0 0 0 0
0 0 0 0 0 0 0 0 0 0 0 0 0 0 0 0 0 0 0 0 0 0 0 0 0 0 0 0 0 0 0 0 0 0 0 0 0 0 0 0 0 0 0 0
0 0 0 0 0 0 0 0 0 0 0 0 0 0 0 0 0 0 0 0 0 0 0 0 0 0 0 0 0 0 0 0 0 0 0 0 0 0 0 0 0 0 0 0
0 0 0 0 0 0 0 0 0 0 0 0 0 0 0 0 0 0 0 0 0 0 0 0 0 0 0 0 0 0 0 0 0 0 0 0 0 0 0 0 0 0 0 0
0 0 0 0 0 0 0 0 0 0 0 0 0 -0 0 0 0 0 0 0 0 0 0 0 0 0 0 0 0 0 0 0 0 0 0 0 0 0 0 0 0 0 0 0
0 0 0 0 0 0 0 0 0 0 0 0 0 0 0 0 0 0 0 0 0 0 0 0 0 0 0 0 0 0 0 0 0 0 0 0 0 0 0 0 0 0 0 0
0 0 0 0 0 0 0 0 0 0 0 0 0 0 0 0 0 0 0 0 0 0 0 0 0 0 0 0 0 0 0 0 0 0 0 0 0 0 0 0 0 0 0 0
0 0 0 0 0 0 0 0 0 0 0 0 0 0 0 0 0 0 0 0 0 0 0 0 0 0 0 0 0 0 0 0 0 0 0 0 0 0 0 0 0 0 0 0
0 0 0 0 0 0 0 0 0 0 0 0 0 0 0 0 0 0 0 0 0 0 0 0 0 0 0 0 0 0 0 0 0 0 0 0 0 0 0 0 0 0 0 0
Wind_Speed_500mb
12 7 18 15 12 3 7 6 8 5 3 7 14 12 30 21 20 25 30 34 36 40 49 54 65 62 60 60 60 58 56 57 52 57 55 52 50 44 45 42 42 42 42 40
5 24 8 11 11 8 4 6 6 7 4 8 5 16 23 11 17 43 54 52 45 42 48 53 55 61 63 61 61 60 58 59 58 58 57 52 47 48 45 43 42 41 42 44
18 5 14 14 9 13 8 10 6 3 9 2 7 12 14 9 22 40 52 56 59 57 54 55 55 61 64 65 65 65 63 60 57 58 61 61 56 52 50 48 45 41 42 43
14 12 6 7 13 13 11 14 10 5 7 7 5 11 10 10 12 9 38 58 69 67 63 64 62 61 66 71 66 66 64 65 66 66 66 65 58 50 41 37 35 37 40 41
11 10 18 13 9 15 12 12 15 10 6 5 2 4 14 7 9 16 23 44 42 41 42 49 56 70 69 67 65 59 52 57 70 74 74 70 65 60 59 54 53 49 45 42
10 6 8 13 8 17 12 12 11 9 5 7 12 13 8 9 10 8 10 14 19 28 22 22 33 42 57 68 69 59 50 42 51 67 69 69 69 67 67 65 64 55 45 42
7 8 4 8 9 7 6 11 5 4 3 12 1 5 11 16 8 8 17 43 36 28 24 27 16 19 26 33 37 48 41 28 33 44 51 57 59 60 60 59 55 53 51 49
15 11 19 11 11 11 16 11 10 14 9 7 3 12 10 5 14 20 25 26 24 23 16 17 14 10 12 18 27 30 29 27 25 29 36 41 43 45 48 50 50 51 50 50
10 10 7 14 11 18 10 19 9 10 3 6 8 11 14 12 17 23 33 45 41 34 30 29 32 35 35 34 31 27 24 23 20 18 17 19 21 25 27 30 33 36 38 39
4 2 8 14 6 4 9 13 6 4 7 9 6 7 6 9 12 14 27 35 44 38 42 39 38 39 40 39 36 30 26 22 19 15 14 15 18 20 23 25 27 29 30 32
5 3 2 10 16 22 11 6 3 3 9 9 5 8 5 8 3 12 16 34 46 47 47 45 43 40 38 35 31 28 23 19 16 12 9 9 10 11 14 16 19 21 23 25
11 5 7 10 2 2 25 26 13 13 9 4 5 6 5 6 5 19 28 38 43 43 41 39 37 34 31 29 25 21 17 12 11 9 5 4 4 5 8 9 11 13 16 18
2 6 0 5 5 5 7 9 19 7 4 12 10 9 12 1 4 22 34 35 38 38 35 32 30 29 27 25 21 18 15 13 11 8 4 1 2 4 6 7 10 12 15 17
5 1 6 10 4 3 6 8 11 12 9 9 22 10 13 6 8 12 24 27 28 28 29 28 25 24 22 19 16 14 12 10 7 5 4 3 3 5 7 10 12 15 16 17
2 6 5 2 7 4 7 5 3 8 9 10 3 10 7 7 9 13 13 13 16 19 18 16 16 17 16 14 14 13 10 8 6 4 5 6 7 8 10 12 14 17 18 19
1 4 2 2 4 6 2 4 4 2 3 7 5 13 14 7 13 8 8 10 10 6 8 10 8 6 4 7 8 8 8 7 7 7 8 8 9 11 12 12 14 15 17 17
6 7 3 6 8 8 7 16 17 9 9 11 12 15 11 11 15 20 15 9 8 8 7 4 3 4 5 5 7 8 9 10 11 12 14 16 17 18 19 19 19 17 18 20
2 6 3 1 2 6 8 9 7 23 12 20 7 7 6 7 13 14 13 13 12 8 3 2 2 5 8 11 14 17 19 19 18 17 17 18 20 20 21 21 23 25 25 25
11 2 4 5 5 9 11 8 12 13 13 23 26 14 11 15 7 12 14 14 13 9 7 6 7 9 11 14 16 15 15 15 17 18 20 20 20 21 23 24 24 25 26 26
14 11 4 5 10 12 13 4 7 8 12 2 16 17 19 23 6 7 24 20 15 11 9 7 8 12 14 16 18 18 20 20 18 16 15 16 18 20 21 23 23 23 23 23
6 12 24 6 7 14 14 10 10 12 12 2 16 41 43 12 9 10 20 21 18 14 11 12 12 13 15 17 18 18 19 19 18 17 15 14 14 15 15 16 17 18 20 20
11 10 7 5 5 12 19 12 17 9 9 8 10 25 42 25 17 16 19 22 20 17 16 15 16 15 15 16 17 17 16 16 15 14 13 13 13 13 13 15 18 20 21 22
2 9 6 14 12 4 37 6 32 8 5 12 12 16 27 29 29 27 28 27 24 22 21 21 19 18 16 15 14 15 14 13 11 10 10 10 12 12 14 16 17 18 18 20
6 5 4 5 7 9 35 32 17 22 26 19 16 20 23 26 30 33 34 33 31 29 27 26 23 21 18 16 14 12 11 9 8 7 7 7 6 8 11 14 17 20 22 24
8 7 7 11 10 19 32 44 44 44 39 35 30 25 26 29 33 37 39 39 35 32 30 27 24 21 18 14 12 10 9 6 4 5 6 7 8 10 13 18 20 21 25 29
19 15 9 17 22 19 15 17 24 35 35 31 30 29 29 31 32 34 36 34 32 30 28 26 22 17 14 12 11 9 8 5 4 5 7 9 13 15 15 16 15 24 24 26
Wind_Direction_500mb
187 162 213 195 179 236 168 194 186 223 244 173 237 251 258 254 255 263 252 254 250 242 236 235 235 235 237 239 238 238 240 241 239 238 236 237 240 245 249 253 256 258 261 270
126 232 191 180 197 184 141 169 245 286 28 166 281 263 261 214 233 239 255 264 260 255 246 242 235 235 235 235 237 237 236 238 238 240 241 244 249 252 257 260 263 264 268 270
220 154 182 180 179 185 197 175 169 266 330 123 325 279 248 246 234 249 250 255 261 259 250 243 240 237 238 238 236 236 236 238 238 240 242 242 245 251 256 260 265 269 275 276
242 211 114 198 207 156 222 178 168 270 25 245 25 281 287 269 268 246 258 250 251 255 256 253 247 240 237 235 238 240 241 242 242 243 243 242 245 252 266 274 277 278 282 280
206 188 194 204 200 163 222 152 179 184 179 4 249 343 271 293 281 263 253 256 262 269 267 260 258 251 242 239 234 235 239 242 241 242 245 246 247 253 258 266 270 276 280 281
218 193 181 198 144 172 139 99 67 65 109 268 194 172 253 216 219 272 302 298 306 311 281 296 271 252 245 238 237 238 239 249 245 244 244 245 246 251 257 263 268 270 270 274
169 210 197 154 130 179 150 117 39 18 360 232 106 196 263 259 288 274 292 306 312 311 304 316 307 264 237 228 231 226 225 234 230 233 236 239 244 248 252 257 258 258 262 265
184 202 181 188 191 173 190 164 157 181 192 239 57 231 250 37 346 40 52 43 52 47 57 50 72 98 129 171 182 189 193 197 202 215 223 230 238 243 247 250 255 259 261 263
171 237 123 189 159 148 175 218 152 109 67 63 213 289 321 49 33 22 32 43 41 57 72 84 90 100 109 121 134 143 148 152 160 177 193 208 219 228 233 241 250 256 259 259
234 221 198 183 133 185 176 149 191 38 150 235 264 275 213 21 23 15 31 32 53 71 80 90 94 97 102 108 113 121 125 135 143 163 185 200 212 222 233 240 246 252 256 257
226 125 304 135 202 176 182 221 161 135 159 176 160 254 224 149 59 62 44 47 66 76 80 86 93 97 99 104 109 110 115 120 128 138 158 184 202 216 228 238 243 249 255 258
204 184 230 204 59 6 200 204 189 191 220 227 128 281 135 124 28 78 65 72 81 87 89 91 93 96 99 100 103 105 109 118 121 128 145 177 206 237 254 264 266 269 272 275
6 219 19 310 339 3 177 204 206 153 89 193 177 228 195 1 52 89 86 85 91 95 96 96 98 92 90 88 90 94 99 104 111 114 123 148 255 266 275 282 289 292 292 291
24 75 195 225 119 100 167 172 198 199 225 170 211 165 211 213 74 99 101 95 90 92 99 101 103 99 100 100 97 95 94 94 86 74 56 25 355 336 325 319 314 308 305 305
76 229 165 249 325 82 153 137 147 207 255 215 122 181 178 247 204 148 122 110 102 101 109 104 103 104 103 105 106 107 105 98 86 50 15 351 350 347 338 328 319 314 311 308
35 347 327 180 93 57 348 318 177 334 168 239 232 283 245 98 134 142 158 154 129 104 97 116 121 109 72 41 35 32 27 20 10 354 344 342 330 323 315 311 306 303 304 303
158 121 313 241 165 115 331 222 196 200 198 159 187 218 156 188 187 181 163 173 162 165 164 171 206 237 254 273 288 303 311 318 317 319 323 323 323 322 321 319 318 314 316 319
90 114 129 204 35 207 248 333 218 214 241 207 202 197 168 141 185 186 178 177 170 181 187 180 230 265 284 294 301 305 307 307 307 310 313 314 315 316 317 316 314 316 317 317
176 183 121 163 206 286 320 199 169 180 268 221 225 161 151 153 175 253 217 205 197 202 222 254 282 295 299 299 300 298 296 296 301 307 309 311 314 315 314 315 319 323 323 322
200 207 206 111 162 196 233 222 174 130 293 55 162 162 161 154 185 242 208 213 214 216 221 243 269 286 294 295 295 296 295 295 297 298 298 300 305 309 313 317 320 324 324 326
177 208 215 194 213 284 240 172 145 104 239 116 171 173 164 189 195 172 192 204 220 228 247 265 271 272 278 283 287 291 295 299 304 306 311 315 317 321 323 327 330 332 329 329
179 170 200 114 166 260 156 106 175 205 125 131 161 179 185 196 192 198 207 211 219 236 253 265 274 278 280 279 281 284 291 296 302 309 317 326 336 341 344 344 345 346 345 344
243 199 188 184 212 294 189 160 204 199 182 196 211 208 205 202 206 212 213 215 225 239 254 267 273 276 278 275 271 270 274 282 292 301 312 326 336 350 358 358 354 351 347 347
272 161 198 59 280 217 209 219 225 240 250 252 241 238 228 223 216 215 216 220 227 234 243 251 257 262 267 268 265 261 256 267 280 303 314 330 338 2 0 359 353 348 347 348
203 120 190 261 264 260 239 232 238 240 243 249 249 244 242 234 225 222 220 218 223 228 231 234 238 238 238 235 238 241 245 253 280 297 318 332 341 355 359 352 341 340 340 340
185 194 183 248 226 233 249 245 249 245 248 244 239 234 234 238 237 224 218 218 219 220 224 227 228 225 221 225 239 236 238 241 259 288 305 325 328 329 334 328 320 325 327 326
Wind_Speed_850mb
12 7 18 15 12 3 7 6 8 5 3 7 14 12 30 21 20 25 30 34 36 40 49 54 65 62 60 60 60 58 56 57 52 57 55 52 50 44 45 42 42 42 42 40
5 24 8 11 11 8 4 6 6 7 4 8 5 16 23 11 17 43 54 52 45 42 48 53 55 61 63 61 61 60 58 59 58 58 57 52 47 48 45 43 42 41 42 44
18 5 14 14 9 13 8 10 6 3 9 2 7 12 14 9 22 40 52 56 59 57 54 55 55 61 64 65 65 65 63 60 57 58 61 61 56 52 50 48 45 41 42 43
14 12 6 7 13 13 11 14 10 5 7 7 5 11 10 10 12 9 38 58 69 67 63 64 62 61 66 71 66 66 64 65 66 66 66 65 58 50 41 37 35 37 40 41
11 10 18 13 9 15 12 12 15 10 6 5 2 4 14 7 9 16 23 44 42 41 42 49 56 70 69 67 65 59 52 57 70 74 74 70 65 60 59 54 53 49 45 42
10 6 8 13 8 17 12 12 11 9 5 7 12 13 8 9 10 8 10 14 19 28 22 22 33 42 57 68 69 59 50 42 51 67 69 69 69 67 67 65 64 55 45 42
7 8 4 8 9 7 6 11 5 4 3 12 1 5 11 16 8 8 17 43 36 28 24 27 16 19 26 33 37 48 41 28 33 44 51 57 59 60 60 59 55 53 51 49
15 11 19 11 11 11 16 11 10 14 9 7 3 12 10 5 14 20 25 26 24 23 16 17 14 10 12 18 27 30 29 27 25 29 36 41 43 45 48 50 50 51 50 50
10 10 7 14 11 18 10 19 9 10 3 6 8 11 14 12 17 23 33 45 41 34 30 29 32 35 35 34 31 27 24 23 20 18 17 19 21 25 27 30 33 36 38 39
4 2 8 14 6 4 9 13 6 4 7 9 6 7 6 9 12 14 27 35 44 38 42 39 38 39 40 39 36 30 26 22 19 15 14 15 18 20 23 25 27 29 30 32
5 3 2 10 16 22 11 6 3 3 9 9 5 8 5 8 3 12 16 34 46 47 47 45 43 40 38 35 31 28 23 19 16 12 9 9 10 11 14 16 19 21 23 25
11 5 7 10 2 2 25 26 13 13 9 4 5 6 5 6 5 19 28 38 43 43 41 39 37 34 31 29 25 21 17 12 11 9 5 4 4 5 8 9 11 13 16 18
2 6 0 5 5 5 7 9 19 7 4 12 10 9 12 1 4 22 34 35 38 38 35 32 30 29 27 25 21 18 15 13 11 8 4 1 2 4 6 7 10 12 15 17
5 1 6 10 4 3 6 8 11 12 9 9 22 10 13 6 8 12 24 27 28 28 29 28 25 24 22 19 16 14 12 10 7 5 4 3 3 5 7 10 12 15 16 17
2 6 5 2 7 4 7 5 3 8 9 10 3 10 7 7 9 13 13 13 16 19 18 16 16 17 16 14 14 13 10 8 6 4 5 6 7 8 10 12 14 17 18 19
1 4 2 2 4 6 2 4 4 2 3 7 5 13 14 7 13 8 8 10 10 6 8 10 8 6 4 7 8 8 8 7 7 7 8 8 9 11 12 12 14 15 17 17
6 7 3 6 8 8 7 16 17 9 9 11 12 15 11 11 15 20 15 9 8 8 7 4 3 4 5 5 7 8 9 10 11 12 14 16 17 18 19 19 19 17 18 20
2 6 3 1 2 6 8 9 7 23 12 20 7 7 6 7 13 14 13 13 12 8 3 2 2 5 8 11 14 17 19 19 18 17 17 18 20 20 21 21 23 25 25 25
11 2 4 5 5 9 11 8 12 13 13 23 26 14 11 15 7 12 14 14 13 9 7 6 7 9 11 14 16 15 15 15 17 18 20 20 20 21 23 24 24 25 26 26
14 11 4 5 10 12 13 4 7 8 12 2 16 17 19 23 6 7 24 20 15 11 9 7 8 12 14 16 18 18 20 20 18 16 15 16 18 20 21 23 23 23 23 23
6 12 24 6 7 14 14 10 10 12 12 2 16 41 43 12 9 10 20 21 18 14 11 12 12 13 15 17 18 18 19 19 18 17 15 14 14 15 15 16 17 18 20 20
11 10 7 5 5 12 19 12 17 9 9 8 10 25 42 25 17 16 19 22 20 17 16 15 16 15 15 16 17 17 16 16 15 14 13 13 13 13 13 15 18 20 21 22
2 9 6 14 12 4 37 6 32 8 5 12 12 16 27 29 29 27 28 27 24 22 21 21 19 18 16 15 14 15 14 13 11 10 10 10 12 12 14 16 17 18 18 20
6 5 4 5 7 9 35 32 17 22 26 19 16 20 23 26 30 33 34 33 31 29 27 26 23 21 18 16 14 12 11 9 8 7 7 7 6 8 11 14 17 20 22 24
8 7 7 11 10 19 32 44 44 44 39 35 30 25 26 29 33 37 39 39 35 32 30 27 24 21 18 14 12 10 9 6 4 5 6 7 8 10 13 18 20 21 25 29
19 15 9 17 22 19 15 17 24 35 35 31 30 29 29 31 32 34 36 34 32 30 28 26 22 17 14 12 11 9 8 5 4 5 7 9 13 15 15 16 15 24 24 26
Wind_Direction_850mb
187 162 213 195 179 236 168 194 186 223 244 173 237 251 258 254 255 263 252 254 250 242 236 235 235 235 237 239 238 238 240 241 239 238 236 237 240 245 249 253 256 258 261 270
126 232 191 180 197 184 141 169 245 286 28 166 281 263 261 214 233 239 255 264 260 255 246 242 235 235 235 235 237 237 236 238 238 240 241 244 249 252 257 260 263 264 268 270
220 154 182 180 179 185 197 175 169 266 330 123 325 279 248 246 234 249 250 255 261 259 250 243 240 237 238 238 236 236 236 238 238 240 242 242 245 251 256 260 265 269 275 276
242 211 114 198 207 156 222 178 168 270 25 245 25 281 287 269 268 246 258 250 251 255 256 253 247 240 237 235 238 240 241 242 242 243 243 242 245 252 266 274 277 278 282 280
206 188 194 204 200 163 222 152 179 184 179 4 249 343 271 293 281 263 253 256 262 269 267 260 258 251 242 239 234 235 239 242 241 242 245 246 247 253 258 266 270 276 280 281
218 193 181 198 144 172 139 99 67 65 109 268 194 172 253 216 219 272 302 298 306 311 281 296 271 252 245 238 237 238 239 249 245 244 244 245 246 251 257 263 268 270 270 274
169 210 197 154 130 179 150 117 39 18 360 232 106 196 263 259 288 274 292 306 312 311 304 316 307 264 237 228 231 226 225 234 230 233 236 239 244 248 252 257 258 258 262 265
184 202 181 188 191 173 190 164 157 181 192 239 57 231 250 37 346 40 52 43 52 47 57 50 72 98 129 171 182 189 193 197 202 215 223 230 238 243 247 250 255 259 261 263
171 237 123 189 159 148 175 218 152 109 67 63 213 289 321 49 33 22 32 43 41 57 72 84 90 100 109 121 134 143 148 152 160 177 193 208 219 228 233 241 250 256 259 259
234 221 198 183 133 185 176 149 191 38 150 235 264 275 213 21 23 15 31 32 53 71 80 90 94 97 102 108 113 121 125 135 143 163 185 200 212 222 233 240 246 252 256 257
226 125 304 135 202 176 182 221 161 135 159 176 160 254 224 149 59 62 44 47 66 76 80 86 93 97 99 104 109 110 115 120 128 138 158 184 202 216 228 238 243 249 255 258
204 184 230 204 59 6 200 204 189 191 220 227 128 281 135 124 28 78 65 72 81 87 89 91 93 96 99 100 103 105 109 118 121 128 145 177 206 237 254 264 266 269 272 275
6 219 19 310 339 3 177 204 206 153 89 193 177 228 195 1 52 89 86 85 91 95 96 96 98 92 90 88 90 94 99 104 111 114 123 148 255 266 275 282 289 292 292 291
24 75 195 225 119 100 167 172 198 199 225 170 211 165 211 213 74 99 101 95 90 92 99 101 103 99 100 100 97 95 94 94 86 74 56 25 355 336 325 319 314 308 305 305
76 229 165 249 325 82 153 137 147 207 255 215 122 181 178 247 204 148 122 110 102 101 109 104 103 104 103 105 106 107 105 98 86 50 15 351 350 347 338 328 319 314 311 308
35 347 327 180 93 57 348 318 177 334 168 239 232 283 245 98 134 142 158 154 129 104 97 116 121 109 72 41 35 32 27 20 10 354 344 342 330 323 315 311 306 303 304 303
158 121 313 241 165 115 331 222 196 200 198 159 187 218 156 188 187 181 163 173 162 165 164 171 206 237 254 273 288 303 311 318 317 319 323 323 323 322 321 319 318 314 316 319
90 114 129 204 35 207 248 333 218 214 241 207 202 197 168 141 185 186 178 177 170 181 187 180 230 265 284 294 301 305 307 307 307 310 313 314 315 316 317 316 314 316 317 317
176 183 121 163 206 286 320 199 169 180 268 221 225 161 151 153 175 253 217 205 197 202 222 254 282 295 299 299 300 298 296 296 301 307 309 311 314 315 314 315 319 323 323 322
200 207 206 111 162 196 233 222 174 130 293 55 162 162 161 154 185 242 208 213 214 216 221 243 269 286 294 295 295 296 295 295 297 298 298 300 305 309 313 317 320 324 324 326
177 208 215 194 213 284 240 172 145 104 239 116 171 173 164 189 195 172 192 204 220 228 247 265 271 272 278 283 287 291 295 299 304 306 311 315 317 321 323 327 330 332 329 329
179 170 200 114 166 260 156 106 175 205 125 131 161 179 185 196 192 198 207 211 219 236 253 265 274 278 280 279 281 284 291 296 302 309 317 326 336 341 344 344 345 346 345 344
243 199 188 184 212 294 189 160 204 199 182 196 211 208 205 202 206 212 213 215 225 239 254 267 273 276 278 275 271 270 274 282 292 301 312 326 336 350 358 358 354 351 347 347
272 161 198 59 280 217 209 219 225 240 250 252 241 238 228 223 216 215 216 220 227 234 243 251 257 262 267 268 265 261 256 267 280 303 314 330 338 2 0 359 353 348 347 348
203 120 190 261 264 260 239 232 238 240 243 249 249 244 242 234 225 222 220 218 223 228 231 234 238 238 238 235 238 241 245 253 280 297 318 332 341 355 359 352 341 340 340 340
185 194 183 248 226 233 249 245 249 245 248 244 239 234 234 238 237 224 218 218 219 220 224 227 228 225 221 225 239 236 238 241 259 288 305 325 328 329 334 328 320 325 327 326